Regional Weather Roundup
Issued by NWS

Home | Current Version | Previous Version | Text Only | Print | Product List | Glossary On
Versions: 1 2 3 4 5 6 7 8 9 10 11 12 13 14 15 16 17 18 19 20 21 22 23 24 25 26 27 28 29 30 31 32 33 34 35 36 37 38 39 40 41 42 43 44 45 46 47 48 49 50
000
ASUS43 KTOP 310659
RWRKS

WEATHER ROUNDUP FOR KANSAS
NATIONAL WEATHER SERVICE GOODLAND KS
200 AM CDT FRI OCT 31 2014

NOTE:  "FAIR" INDICATES FEW OR NO CLOUDS BELOW 12,000 FEET WITH NO
SIGNIFICANT WEATHER AND/OR OBSTRUCTIONS TO VISIBILITY.

KSZ001>006-013>018-027>032-041>047-310800-
NORTHWEST KANSAS

CITY           SKY/WX    TMP DP  RH WIND       PRES   REMARKS
GOODLAND       CLEAR     32  28  85 E3        30.46R
HAYS           CLEAR     41  28  60 N16G23    30.41R
HILL CITY      CLEAR     39  32  76 NE13      30.44R WCI  31
RUSSELL        CLEAR     39  33  79 N13       30.40R WCI  31
$$

KSZ061>065-074>080-084>089-310800-
SOUTHWEST KANSAS

CITY           SKY/WX    TMP DP  RH WIND       PRES   REMARKS
DODGE CITY     CLEAR     42  32  67 N12       30.39R
ELKHART          N/A     44  25  47 N5          N/A
GARDEN CITY    CLEAR     42  32  67 NE10      30.41R
GREAT BEND     CLEAR     43  32  65 N18       30.40R
LIBERAL        CLEAR     43  27  52 N6        30.41R
$$

KSZ066>073-081>083-090>101-310800-
SOUTHEAST KANSAS

CITY           SKY/WX    TMP DP  RH WIND       PRES   REMARKS
CHANUTE        CLEAR     50  40  68 N13       30.24R
COFFEYVILLE    CLEAR     52  40  63 N10       30.23R
HUTCHINSON     CLEAR     45  35  68 N15       30.36R
MEDICINE LODGE   N/A     50  36  58 N14       30.32R
NEWTON         CLEAR     43  32  65 N16       30.35R
PARSONS        CLEAR     50  41  71 N10       30.24R
WICHITA INTL   PTCLDY    48  37  65 N15G26    30.32R
WICHITA JABRA  CLEAR     45  37  73 N16G28    30.32R
WINFIELD       CLEAR     50  38  63 N20       30.29R
$$

KSZ007>012-019>026-033>040-048>060-102>105-310800-
NORTHEAST KANSAS

CITY           SKY/WX    TMP DP  RH WIND       PRES   REMARKS
CONCORDIA      PTCLDY    42  35  76 N15G24    30.39R
EMPORIA        CLEAR     45  39  79 N16G23    30.29R
LAWRENCE       MOCLDY    49  40  71 N17       30.27R
MANHATTAN      CLOUDY    48  39  71 N15G26    30.35R
OLATHE IND     CLEAR     46  40  79 NW12      30.25R
OLATHE EXE     CLEAR     49  41  74 N10       30.23R
SALINA         CLOUDY    46  37  71 N14       30.38R
TOPEKA BILLARD MOCLDY    49  41  74 NW16G23   30.30R
TOPEKA FORBES  CLOUDY    47  40  76 N16       30.29R
$$



USA.gov is the U.S. government's official web portal to all federal, state and local government web resources and services.